EST,Max TemperatureF,Mean TemperatureF,Min TemperatureF,Max Dew PointF,MeanDew PointF,Min DewpointF,Max Humidity, Mean Humidity, Min Humidity, Max Sea Level PressureIn, Mean Sea Level PressureIn, Min Sea Level PressureIn, Max VisibilityMiles, Mean VisibilityMiles, Min VisibilityMiles, Max Wind SpeedMPH, Mean Wind SpeedMPH, Max Gust SpeedMPH,PrecipitationIn, CloudCover, Events, WindDirDegrees
2012-12-1,19,14,8,18,11,1,93,80,67,30.68,30.60,30.51,10,8,2,10,5,,0.00,7,,17
2012-12-2,42,30,19,43,29,18,100,96,86,30.51,30.21,29.91,9,2,0,8,3,,0.42,8,,223
2012-12-3,48,37,26,43,35,25,100,84,61,30.28,30.08,29.90,10,7,0,12,6,17,0.03,5,,279
2012-12-4,50,37,24,50,35,23,100,95,87,30.29,30.16,29.90,10,5,0,9,2,16,0.01,7,,192
2012-12-5,51,40,30,52,33,16,100,71,48,30.01,29.85,29.72,10,8,2,21,11,29,0.23,7,,288
2012-12-6,37,28,19,18,13,10,86,55,35,30.26,30.19,30.02,10,10,10,20,10,31,0.00,1,,329
2012-12-7,41,29,17,34,25,16,100,82,61,30.25,30.12,30.00,10,10,6,15,3,23,0.00,2,,191
2012-12-8,35,32,28,34,32,28,100,96,93,30.00,29.92,29.82,9,3,0,9,3,,0.05,8,,2
2012-12-9,42,36,30,36,27,21,100,73,46,30.30,30.13,29.84,10,8,0,14,5,18,0.00,3,,327
2012-12-10,32,30,28,32,28,23,100,93,75,30.21,29.77,29.45,10,4,1,13,4,,0.29,8,,34
2012-12-11,37,28,19,34,26,16,100,81,56,30.08,29.78,29.48,10,10,5,16,3,21,0.02,4,,324
2012-12-12,35,24,14,19,17,10,100,77,48,30.35,30.25,30.09,10,10,10,7,2,,0.00,0,,292
2012-12-13,39,28,17,27,21,18,100,78,49,30.39,30.33,30.20,10,10,9,6,3,,0.00,1,,225
2012-12-14,39,30,21,27,24,19,93,75,56,30.19,30.04,29.94,10,10,7,17,4,23,0.00,3,,239
2012-12-15,35,24,10,25,8,0,79,56,34,30.36,30.27,30.07,10,10,10,16,10,22,0.00,0,,360
2012-12-16,19,14,8,16,7,3,93,72,49,30.35,30.28,30.20,10,9,0,7,2,,0.00,3,,20
2012-12-17,30,24,17,30,21,14,100,92,86,30.21,30.08,29.94,10,3,0,14,9,17,0.02,8,,22
2012-12-18,39,34,30,37,34,30,100,96,87,29.93,29.63,29.42,10,6,2,17,12,22,0.48,8,,27
2012-12-19,35,34,32,34,32,28,100,93,81,29.97,29.64,29.41,10,7,2,20,14,25,0.12,8,,5
2012-12-20,35,32,30,30,28,25,100,87,70,30.17,30.11,29.98,10,10,3,10,6,,0.00,8,,19
2012-12-21,48,39,30,46,36,25,100,91,80,30.06,29.54,29.08,10,7,1,15,4,31,1.08,8,,92
2012-12-22,42,33,24,39,27,10,93,80,54,29.45,29.24,29.08,10,10,1,16,7,25,0.02,5,,229
2012-12-23,30,24,19,18,11,7,69,56,43,29.71,29.63,29.45,10,10,10,16,10,26,0.00,5,,263
2012-12-24,30,24,19,21,13,9,80,59,44,30.02,29.92,29.72,10,10,10,17,8,24,0.00,0,,276
2012-12-25,28,20,12,16,13,9,93,70,55,30.17,30.04,29.99,10,10,10,9,3,,0.00,2,,357
2012-12-26,28,19,10,12,11,7,92,67,51,30.30,30.23,30.13,10,10,10,13,5,,0.00,0,,19
2012-12-27,28,24,19,25,21,12,93,85,68,30.12,29.69,29.48,10,3,0,26,15,34,0.03,8,,21
2012-12-28,33,27,21,23,18,12,86,68,52,29.91,29.74,29.53,10,9,2,23,14,32,0.00,3,,315
2012-12-29,24,16,8,21,15,7,100,87,68,29.94,29.79,29.45,10,6,0,15,3,18,0.01,4,,20
2012-12-30,24,19,14,19,11,0,93,70,53,29.74,29.53,29.39,10,7,1,20,14,30,0.00,5,,315
2012-12-31,30,21,12,19,10,0,80,59,44,29.83,29.76,29.61,10,10,5,21,10,38,0.00,2,,275